N6ZQK Weather Reports


Display with metric or nautical units.
time (UTC)temp
F
wind
direction
speed
MPH
gust
MPH
rain 1hr
in
rain 24hr
in
rain mn
in
humidity
%
barometer
mb
20220625045407 74 150 1.0 6.0 0.00 0.00 0.00 33 1015.8
20220625044806 74 197 0.0 5.0 0.00 0.00 0.00 32 1015.8
20220625043607 74 0 0.0 0.0 0.00 0.00 0.00 32 1015.7
20220625042406 74 0 0.0 0.0 0.00 0.00 0.00 31 1015.7
20220625041807 74 0 0.0 0.0 0.00 0.00 0.00 31 1015.7
20220625041206 74 0 0.0 0.0 0.00 0.00 0.00 31 1015.6
20220625040606 75 0 0.0 0.0 0.00 0.00 0.00 31 1015.5
20220625040008 75 232 0.0 1.0 0.00 0.00 0.00 31 1015.5
20220625035407 75 232 0.0 1.0 0.00 0.00 0.00 31 1015.4
20220625034806 75 0 0.0 0.0 0.00 0.00 0.00 31 1015.4
20220625034207 75 0 0.0 0.0 0.00 0.00 0.00 32 1015.3
20220625033607 76 0 0.0 0.0 0.00 0.00 0.00 32 1015.4
20220625033007 76 0 0.0 0.0 0.00 0.00 0.00 33 1015.4
20220625032406 76 0 0.0 0.0 0.00 0.00 0.00 33 1015.4
20220625031806 76 0 0.0 0.0 0.00 0.00 0.00 34 1015.4
20220625031207 77 0 0.0 0.0 0.00 0.00 0.00 34 1015.3
20220625030606 77 0 0.0 0.0 0.00 0.00 0.00 34 1015.3
20220625030007 78 0 0.0 0.0 0.00 0.00 0.00 34 1015.3
20220625025407 78 0 0.0 0.0 0.00 0.00 0.00 34 1015.3
20220625024806 78 0 0.0 0.0 0.00 0.00 0.00 34 1015.2
20220625024206 79 0 0.0 0.0 0.00 0.00 0.00 34 1015.2
20220625023606 79 0 0.0 0.0 0.00 0.00 0.00 34 1015.2
20220625023006 80 0 0.0 0.0 0.00 0.00 0.00 33 1015.2
20220625022406 80 0 0.0 0.0 0.00 0.00 0.00 33 1015.2
20220625021207 82 232 0.0 3.0 0.00 0.00 0.00 33 1015.2
20220625020007 84 232 0.0 2.0 0.00 0.00 0.00 30 1015.3
20220625015407 84 232 1.0 3.0 0.00 0.00 0.00 30 1015.3
20220625014807 85 233 1.0 3.0 0.00 0.00 0.00 29 1015.3
20220625014206 86 232 0.0 2.0 0.00 0.00 0.00 27 1015.3
20220625013606 87 232 0.0 6.0 0.00 0.00 0.00 24 1015.1
20220625013006 87 231 0.0 2.0 0.00 0.00 0.00 26 1015.2
20220625011806 88 232 1.0 6.0 0.00 0.00 0.00 22 1015.2
20220625011206 88 232 1.0 6.0 0.00 0.00 0.00 20 1015.0
20220625010606 89 232 1.0 5.0 0.00 0.00 0.00 20 1015.1
20220625010007 89 232 1.0 4.0 0.00 0.00 0.00 22 1015.2
20220625005407 90 231 1.0 5.0 0.00 0.00 0.00 21 1015.2
20220625004806 90 230 1.0 5.0 0.00 0.00 0.00 21 1015.3
20220625004206 90 230 1.0 4.0 0.00 0.00 0.00 18 1015.3
20220625003606 90 230 1.0 4.0 0.00 0.00 0.00 20 1015.3
20220625001807 90 232 2.0 8.0 0.00 0.00 0.00 18 1015.4
20220625000006 90 229 1.0 8.0 0.00 0.00 0.00 17 1015.3
20220624235406 90 240 2.0 8.0 0.00 0.00 0.00 18 1015.4
20220624234806 90 253 1.0 9.0 0.00 0.00 0.00 18 1015.4
20220624234207 90 239 1.0 11.0 0.00 0.00 0.00 18 1015.4
20220624233606 90 236 3.0 11.0 0.00 0.00 0.00 20 1015.4
20220624233007 90 230 3.0 11.0 0.00 0.00 0.00 19 1015.5
20220624232407 90 241 1.0 10.0 0.00 0.00 0.00 20 1015.5
20220624231807 90 211 2.0 9.0 0.00 0.00 0.00 19 1015.5
20220624231206 90 213 2.0 9.0 0.00 0.00 0.00 20 1015.5
20220624230606 90 249 2.0 10.0 0.00 0.00 0.00 19 1015.6
20220624225406 89 246 2.0 9.0 0.00 0.00 0.00 20 1015.5
20220624224806 89 253 3.0 11.0 0.00 0.00 0.00 19 1015.6
20220624224206 89 249 4.0 11.0 0.00 0.00 0.00 19 1015.7
20220624223607 89 231 3.0 10.0 0.00 0.00 0.00 19 1015.7
20220624223007 89 210 3.0 9.0 0.00 0.00 0.00 19 1015.7
20220624222406 89 217 2.0 9.0 0.00 0.00 0.00 19 1015.8
20220624220606 89 228 2.0 9.0 0.00 0.00 0.00 21 1015.9
20220624220007 88 220 2.0 11.0 0.00 0.00 0.00 22 1015.9
20220624215406 88 254 3.0 12.0 0.00 0.00 0.00 23 1015.9
20220624214807 88 250 2.0 9.0 0.00 0.00 0.00 24 1015.9
20220624214206 88 261 3.0 8.0 0.00 0.00 0.00 23 1015.9
20220624213606 88 249 2.0 8.0 0.00 0.00 0.00 24 1015.9
20220624213007 88 232 4.0 10.0 0.00 0.00 0.00 24 1015.9
20220624212406 88 234 3.0 10.0 0.00 0.00 0.00 23 1016.0
20220624210606 88 216 2.0 10.0 0.00 0.00 0.00 23 1016.0
20220624205406 87 232 3.0 9.0 0.00 0.00 0.00 25 1016.1
20220624204206 88 237 2.0 11.0 0.00 0.00 0.00 27 1016.1
20220624203606 88 260 2.0 8.0 0.00 0.00 0.00 26 1016.1
20220624202406 88 229 1.0 6.0 0.00 0.00 0.00 26 1016.2
20220624201806 87 230 1.0 8.0 0.00 0.00 0.00 24 1016.1
20220624201206 87 229 2.0 8.0 0.00 0.00 0.00 25 1016.2
20220624200607 87 228 1.0 7.0 0.00 0.00 0.00 24 1016.3
20220624200007 87 233 2.0 9.0 0.00 0.00 0.00 22 1016.3
20220624195407 86 236 2.0 7.0 0.00 0.00 0.00 24 1016.3
20220624191806 86 248 2.0 8.0 0.00 0.00 0.00 29 1016.4
20220624191206 86 250 2.0 8.0 0.00 0.00 0.00 28 1016.6
20220624190606 86 243 2.0 7.0 0.00 0.00 0.00 27 1016.4
20220624190007 86 236 1.0 5.0 0.00 0.00 0.00 30 1016.5
20220624185406 85 231 0.0 4.0 0.00 0.00 0.00 30 1016.4
20220624184206 84 232 2.0 9.0 0.00 0.00 0.00 28 1016.4
20220624183606 84 232 0.0 9.0 0.00 0.00 0.00 30 1016.4
20220624183006 84 221 1.0 9.0 0.00 0.00 0.00 28 1016.3
20220624182406 84 202 2.0 9.0 0.00 0.00 0.00 28 1016.3
20220624181806 83 177 2.0 8.0 0.00 0.00 0.00 28 1016.2
20220624181206 83 156 2.0 7.0 0.00 0.00 0.00 28 1016.2
20220624180606 83 155 1.0 5.0 0.00 0.00 0.00 34 1016.2
20220624180006 82 154 1.0 6.0 0.00 0.00 0.00 33 1016.2
20220624174806 82 154 2.0 7.0 0.00 0.00 0.00 34 1016.2
20220624173606 81 146 1.0 6.0 0.00 0.00 0.00 36 1016.2
20220624173007 81 145 1.0 6.0 0.00 0.00 0.00 37 1016.2
20220624171806 80 146 2.0 8.0 0.00 0.00 0.00 38 1016.2
20220624171206 80 145 3.0 7.0 0.00 0.00 0.00 36 1016.2
20220624170606 79 130 3.0 9.0 0.00 0.00 0.00 37 1016.1
20220624170006 79 108 1.0 9.0 0.00 0.00 0.00 39 1016.3
20220624165406 78 107 1.0 6.0 0.00 0.00 0.00 41 1016.4
20220624164806 78 107 2.0 6.0 0.00 0.00 0.00 40 1016.4
20220624164206 77 107 2.0 6.0 0.00 0.00 0.00 40 1016.4
20220624163605 77 107 1.0 6.0 0.00 0.00 0.00 44 1016.4
20220624163007 76 107 1.0 6.0 0.00 0.00 0.00 46 1016.5
20220624162406 76 106 1.0 6.0 0.00 0.00 0.00 47 1016.4
20220624161806 75 106 2.0 11.0 0.00 0.00 0.00 48 1016.5
20220624161206 75 105 3.0 11.0 0.00 0.00 0.00 48 1016.6
20220624160606 74 105 3.0 12.0 0.00 0.00 0.00 49 1016.6
20220624160007 74 107 3.0 12.0 0.00 0.00 0.00 47 1016.5
20220624155406 73 104 4.0 13.0 0.00 0.00 0.00 48 1016.5
20220624154806 73 103 4.0 14.0 0.00 0.00 0.00 48 1016.4
20220624154206 72 102 5.0 14.0 0.00 0.00 0.00 48 1016.3
20220624153606 72 102 5.0 14.0 0.00 0.00 0.00 49 1016.3
20220624153007 71 105 5.0 16.0 0.00 0.00 0.00 50 1016.2
20220624152406 71 107 4.0 16.0 0.00 0.00 0.00 51 1016.3
20220624151206 70 106 5.0 19.0 0.00 0.00 0.00 50 1016.1
20220624150606 70 102 6.0 16.0 0.00 0.00 0.00 49 1016.1
20220624150007 69 100 6.0 18.0 0.00 0.00 0.00 50 1016.1
20220624144806 69 103 5.0 17.0 0.00 0.00 0.00 50 1016.0
20220624144206 68 103 5.0 20.0 0.00 0.00 0.00 51 1015.9
20220624143606 68 102 5.0 20.0 0.00 0.00 0.00 51 1015.9
20220624142406 68 102 7.0 20.0 0.00 0.00 0.00 52 1015.9
20220624141806 68 102 7.0 19.0 0.00 0.00 0.00 51 1015.9
20220624141206 68 105 7.0 19.0 0.00 0.00 0.00 51 1015.9
20220624140606 68 105 6.0 18.0 0.00 0.00 0.00 51 1015.9
20220624140007 68 104 6.0 19.0 0.00 0.00 0.00 51 1015.9
20220624135406 68 101 6.0 19.0 0.00 0.00 0.00 50 1015.7
20220624134806 68 100 6.0 19.0 0.00 0.00 0.00 51 1015.8
20220624134206 68 102 6.0 18.0 0.00 0.00 0.00 50 1015.7
20220624133606 68 104 6.0 18.0 0.00 0.00 0.00 50 1015.7
20220624133007 68 101 5.0 18.0 0.00 0.00 0.00 50 1015.7
20220624131806 68 99 7.0 20.0 0.00 0.00 0.00 49 1015.6
20220624130606 68 102 8.0 19.0 0.00 0.00 0.00 49 1015.7
20220624130006 68 100 9.0 19.0 0.00 0.00 0.00 49 1015.7
20220624125406 68 99 7.0 19.0 0.00 0.00 0.00 48 1015.6
20220624124806 68 99 8.0 18.0 0.00 0.00 0.00 48 1015.5
20220624124206 68 101 8.0 19.0 0.00 0.00 0.00 49 1015.5
20220624123006 68 98 7.0 20.0 0.00 0.00 0.00 49 1015.5
20220624122406 68 101 8.0 19.0 0.00 0.00 0.00 49 1015.5
20220624121806 68 103 8.0 19.0 0.00 0.00 0.00 48 1015.5
20220624121206 68 102 5.0 18.0 0.00 0.00 0.00 49 1015.4
20220624120606 68 97 5.0 18.0 0.00 0.00 0.00 49 1015.4
20220624120007 68 100 7.0 20.0 0.00 0.00 0.00 49 1015.4
20220624115405 68 99 8.0 20.0 0.00 0.00 0.00 49 1015.4
20220624114806 68 98 7.0 19.0 0.00 0.00 0.00 49 1015.4
20220624114206 68 101 7.0 18.0 0.00 0.00 0.00 49 1015.4
20220624113606 68 100 7.0 17.0 0.00 0.00 0.00 49 1015.3
20220624112406 68 104 9.0 19.0 0.00 0.00 0.00 49 1015.3
20220624111806 68 105 6.0 18.0 0.00 0.00 0.00 49 1015.2
20220624111206 68 101 7.0 18.0 0.00 0.00 0.00 49 1015.3
20220624110606 68 100 8.0 19.0 0.00 0.00 0.00 49 1015.2
20220624110007 68 102 8.0 19.0 0.00 0.00 0.00 49 1015.3
20220624105406 68 104 8.0 18.0 0.00 0.00 0.00 49 1015.3
20220624104806 69 100 6.0 20.0 0.00 0.00 0.00 49 1015.3
20220624104206 69 99 7.0 18.0 0.00 0.00 0.00 49 1015.3
20220624103007 68 99 7.0 18.0 0.00 0.00 0.00 49 1015.2
20220624102405 68 102 5.0 16.0 0.00 0.00 0.00 49 1015.2
20220624101206 69 100 7.0 18.0 0.00 0.00 0.00 49 1015.4
20220624100007 69 97 6.0 22.0 0.00 0.00 0.00 49 1015.5
20220624095406 69 99 5.0 20.0 0.00 0.00 0.00 49 1015.5
20220624094806 69 99 6.0 16.0 0.00 0.00 0.00 49 1015.5
20220624093606 69 98 6.0 17.0 0.00 0.00 0.00 50 1015.6
20220624093006 69 104 6.0 21.0 0.00 0.00 0.00 50 1015.6
20220624092406 69 106 6.0 16.0 0.00 0.00 0.00 50 1015.6
20220624091206 69 103 6.0 18.0 0.00 0.00 0.00 49 1015.7
20220624090606 69 102 6.0 16.0 0.00 0.00 0.00 49 1015.8
20220624090007 69 103 6.0 18.0 0.00 0.00 0.00 49 1015.8
20220624084206 70 103 3.0 15.0 0.00 0.00 0.00 49 1015.8
20220624083606 70 101 5.0 16.0 0.00 0.00 0.00 49 1015.7
20220624083006 70 102 6.0 18.0 0.00 0.00 0.00 49 1015.7
20220624082406 70 104 5.0 19.0 0.00 0.00 0.00 49 1015.7
20220624081206 70 104 4.0 21.0 0.00 0.00 0.00 49 1015.6
20220624080606 70 101 5.0 18.0 0.00 0.00 0.00 49 1015.6
20220624080006 70 102 4.0 16.0 0.00 0.00 0.00 49 1015.5
20220624075406 70 105 3.0 16.0 0.00 0.00 0.00 49 1015.8
20220624074806 70 101 3.0 12.0 0.00 0.00 0.00 49 1015.9
20220624074206 70 98 2.0 12.0 0.00 0.00 0.00 50 1015.8
20220624073606 70 98 3.0 11.0 0.00 0.00 0.00 50 1015.8
20220624073007 70 100 3.0 14.0 0.00 0.00 0.00 50 1015.8
20220624072406 70 103 2.0 9.0 0.00 0.00 0.00 50 1015.9
20220624071806 70 99 3.0 14.0 0.00 0.00 0.00 49 1016.0
20220624071206 70 98 3.0 11.0 0.00 0.00 0.00 50 1015.9
20220624070007 70 99 3.0 11.0 0.00 0.00 0.00 49 1015.9
20220624065406 71 101 2.0 7.0 0.00 0.00 0.00 49 1016.0
20220624064806 71 103 2.0 7.0 0.00 0.00 0.00 49 1016.0
20220624064206 71 104 1.0 8.0 0.00 0.00 0.00 49 1015.9
20220624063606 71 104 1.0 8.0 0.00 0.00 0.00 48 1016.0
20220624062405 71 104 1.0 8.0 0.00 0.00 0.00 48 1016.1
20220624061806 72 106 2.0 11.0 0.00 0.00 0.00 48 1016.1
20220624061206 72 104 1.0 11.0 0.00 0.00 0.00 48 1016.1
20220624060606 71 103 1.0 8.0 0.00 0.00 0.00 48 1016.1
20220624060006 72 99 2.0 8.0 0.00 0.00 0.00 48 1016.1
20220624055406 72 97 2.0 7.0 0.00 0.00 0.00 48 1016.1
20220624053605 72 217 1.0 6.0 0.00 0.00 0.00 47 1016.1
20220624053007 72 229 0.0 3.0 0.00 0.00 0.00 46 1016.1
20220624052406 72 0 0.0 0.0 0.00 0.00 0.00 46 1016.1
20220624051206 73 247 0.0 2.0 0.00 0.00 0.00 44 1016.1
20220624050606 73 252 0.0 3.0 0.00 0.00 0.00 42 1016.0
20220624050006 74 264 0.0 5.0 0.00 0.00 0.00 41 1016.0